Regional Weather Roundup
Issued by NWS

Home | Current Version | Previous Version | Graphics & Text | Print | Product List | Glossary On
Versions: 1 2 3 4 5 6 7 8 9 10 11 12 13 14 15 16 17 18 19 20 21 22 23 24 25 26 27 28
000
ASUS45 KCYS 220910
RWRWY

WYOMING REGIONAL WEATHER ROUNDUP
NATIONAL WEATHER SERVICE CHEYENNE WY
300 AM MDT SAT APR 22 2017

NOTE:  "FAIR" INDICATES FEW OR NO CLOUDS BELOW 12,000 FEET
WITH NO SIGNIFICANT WEATHER AND/OR OBSTRUCTIONS TO VISIBILITY.

WYZ001-221000-
YELLOWSTONE NATIONAL PARK

CITY           SKY/WX    TMP DP  RH WIND       PRES   REMARKS
LK YELLOWSTONE   N/A     17  16  95 CALM      30.26F
W YELLOWSTONE  NOT AVBL

$$
WYZ002>013-054>058-071-098>099-221000-
NORTHERN WYOMING

CITY           SKY/WX    TMP DP  RH WIND       PRES   REMARKS
JACKSON        FAIR      27  27 100 NW6       30.25S WCI  20
CODY           CLOUDY    36  34  92 CALM      30.25F
GREYBULL       CLOUDY    41  36  82 NW8       30.21S
WORLAND        LGT RAIN  40  40 100 CALM      30.22F
SHERIDAN       CLOUDY    40  38  93 CALM      30.24F
BUFFALO        MOCLDY    39  35  86 NW12      30.23F WCI  32
GILLETTE       CLOUDY    41  41 100 N3        30.22S
HULETT         PTSUNNY   37  37 100 SW3       30.23S
NEWCASTLE      PTSUNNY   41  37  87 S8        30.24S

$$
WYZ014>020-022>026-101>103-221000-
CENTRAL WYOMING

CITY           SKY/WX    TMP DP  RH WIND       PRES   REMARKS
BIG PINEY      FAIR      25  21  85 E3        30.23S
PINEDALE       FAIR      23  21  93 NW3       30.25R
DUBOIS         CLOUDY    28  21  74 NW5       30.21S WCI  23
LANDER         CLOUDY    36  35  96 CALM      30.21S
RIVERTON       CLOUDY    36  34  92 SW3       30.22F
CASPER         LGT RAIN  36  34  92 W15       30.18S WCI  27
DOUGLAS        MOCLDY    38  36  92 SE7       30.20R WCI  33

$$
WYZ021-027>030-104>119-221000-
SOUTHERN WYOMING

CITY           SKY/WX    TMP DP  RH WIND       PRES   REMARKS
EVANSTON       FAIR      26  22  84 SW3       30.25F
FORT BRIDGER   FAIR      30  25  81 W10       30.28S WCI  21
ROCK SPRINGS   MOCLDY    31  23  72 SW8       30.24S WCI  23
DIXON            N/A     30  28  91 SE3       30.26S
RAWLINS        CLOUDY    32  29  88 NW5       30.22S WCI  27
SARATOGA       CLOUDY    28  28 100 W5        30.22S WCI  23
LARAMIE        MOCLDY    28  26  92 SE9       30.18S WCI  19
CHEYENNE       LGT SNOW  33  31  92 S8        30.20F FOG     WCI  26
TORRINGTON     CLOUDY    41  37  86 SE6       30.21S
PINE BLUFFS    CLOUDY    36  36 100 SW3       30.24S

$$




USA.gov is the U.S. government's official web portal to all federal, state and local government web resources and services.